Location: Newark
(14.6670°N, 74.3000°E)
Time: 21:35:34
(UTC+00:00)

OTV 5 (USA 277) - Visible Passes

Search period start: 20 October 2019 00:00
Search period end: 30 October 2019 00:00
Orbit: 310 x 324 km, 54.5° (Epoch: 17 October)

Date Brightness Start Highest point End Pass type
(mag) Time Alt. Az. Time Alt. Az. Time Alt. Az.
22 Oct ? 14:06:36 10° SSW 14:07:03 14° SSW 14:07:03 14° SSW visible
23 Oct ? 14:21:27 10° WSW 14:22:15 16° W 14:22:15 16° W visible
24 Oct ? 00:01:02 11° NNW 00:03:26 39° NE 00:06:00 10° SE visible
24 Oct ? 13:01:53 10° S 13:04:08 23° ESE 13:06:23 10° ENE visible
25 Oct ? 00:16:12 16° WNW 00:17:54 32° WSW 00:20:22 10° S visible
25 Oct ? 13:15:57 10° SW 13:18:35 56° NW 13:21:15 10° NNE visible
26 Oct ? 13:31:49 10° W 13:33:09 13° NW 13:34:27 10° NNW visible
